AUA901 LOWW-LOWI

Flight info

Callsign AUA901
Flight time 0h 48m
Altitude 30000
Route SOVIL DCT SITNI DCT BAGSI DCT NANIT NANIT2A
Aircraft A319/M-SDE3FGHIRWY/LB1

Departure

Time 2026-05-06 17:40
Airport Vienna International Airport (LOWW)

Arrival

Time 2026-05-06 18:29
Airport Innsbruck Airport (LOWI)
Time Latitude Longitude Altitude Speed Heading
2026-05-06 17:20 48.11899 16.56769 617 ft 0 kts 206°
2026-05-06 17:31 48.11907 16.56775 622 ft 4 kts 207°
2026-05-06 17:32 48.11931 16.56793 620 ft 4 kts 205°
2026-05-06 17:32 48.11956 16.56805 616 ft 4 kts 171°
2026-05-06 17:32 48.11967 16.56799 624 ft 0 kts 116°
2026-05-06 17:38 48.11958 16.56825 618 ft 6 kts 116°
2026-05-06 17:38 48.11922 16.56937 609 ft 15 kts 116°
2026-05-06 17:38 48.11874 16.57085 609 ft 17 kts 116°
2026-05-06 17:38 48.11846 16.57236 623 ft 12 kts 105°
2026-05-06 17:39 48.11892 16.57306 609 ft 12 kts 358°
2026-05-06 17:39 48.11986 16.57334 612 ft 17 kts 57°
2026-05-06 17:39 48.12010 16.57510 609 ft 18 kts 104°
2026-05-06 17:39 48.11977 16.57706 609 ft 21 kts 104°
2026-05-06 17:40 48.11875 16.57863 609 ft 27 kts 162°
2026-05-06 17:40 48.11463 16.58037 609 ft 108 kts 164°
2026-05-06 17:40 48.10507 16.58445 804 ft 162 kts 165°
2026-05-06 17:40 48.09425 16.58905 1816 ft 161 kts 167°
2026-05-06 17:41 48.08297 16.59367 2648 ft 179 kts 170°
2026-05-06 17:41 48.07054 16.59871 3640 ft 188 kts 171°
2026-05-06 17:41 48.05722 16.60017 4541 ft 205 kts 198°
2026-05-06 17:41 48.04502 16.58703 5246 ft 233 kts 230°
2026-05-06 17:42 48.03523 16.56696 6434 ft 243 kts 234°
2026-05-06 17:42 48.02608 16.54518 7635 ft 253 kts 243°
2026-05-06 17:42 48.02257 16.51885 8866 ft 267 kts 266°
2026-05-06 17:42 48.02308 16.49114 10075 ft 276 kts 268°
2026-05-06 17:43 48.02383 16.46127 10835 ft 297 kts 268°
2026-05-06 17:43 48.02470 16.42994 11890 ft 306 kts 269°
2026-05-06 17:43 48.02559 16.39782 13040 ft 312 kts 268°
2026-05-06 17:43 48.02644 16.36507 14079 ft 319 kts 268°
2026-05-06 17:44 48.02727 16.33162 15048 ft 326 kts 269°
2026-05-06 17:44 48.02808 16.29754 16040 ft 330 kts 268°
2026-05-06 17:44 48.02888 16.26305 17072 ft 334 kts 268°
2026-05-06 17:44 48.02970 16.22821 18101 ft 337 kts 268°
2026-05-06 17:45 48.03051 16.19304 18994 ft 341 kts 268°
2026-05-06 17:45 48.03131 16.15753 19907 ft 344 kts 268°
2026-05-06 17:45 48.03212 16.12161 20820 ft 347 kts 268°
2026-05-06 17:45 48.03295 16.08535 21710 ft 351 kts 268°
2026-05-06 17:46 48.03377 16.04866 22608 ft 355 kts 267°
2026-05-06 17:46 48.03456 16.01158 23463 ft 359 kts 267°
2026-05-06 17:46 48.03534 15.97409 24192 ft 363 kts 267°
2026-05-06 17:46 48.03612 15.93630 24951 ft 365 kts 267°
2026-05-06 17:47 48.03691 15.89825 25711 ft 368 kts 267°
2026-05-06 17:47 48.03770 15.85996 26451 ft 370 kts 267°
2026-05-06 17:47 48.03850 15.82139 27164 ft 373 kts 267°
2026-05-06 17:47 48.03928 15.78251 27874 ft 376 kts 267°
2026-05-06 17:48 48.04003 15.74330 28545 ft 379 kts 267°
2026-05-06 17:48 48.04074 15.70381 29205 ft 382 kts 267°
2026-05-06 17:48 48.04144 15.66401 29658 ft 384 kts 267°
2026-05-06 17:48 48.04217 15.62432 29742 ft 375 kts 267°
2026-05-06 17:49 48.04295 15.58694 29749 ft 355 kts 267°
2026-05-06 17:49 48.04371 15.55044 29747 ft 339 kts 266°
2026-05-06 17:49 48.04475 15.49286 29745 ft 331 kts 266°
2026-05-06 17:50 48.04585 15.41308 29748 ft 330 kts 265°
2026-05-06 17:50 48.04685 15.34445 29749 ft 331 kts 266°
2026-05-06 17:51 48.04781 15.28688 29747 ft 331 kts 266°
2026-05-06 17:51 48.04796 15.21834 29741 ft 326 kts 257°
2026-05-06 17:52 48.03545 15.15393 29737 ft 323 kts 249°
2026-05-06 17:52 48.02185 15.09046 29730 ft 323 kts 249°
2026-05-06 17:53 48.00809 15.02665 29729 ft 323 kts 249°
2026-05-06 17:53 47.99433 14.96296 29745 ft 322 kts 248°
2026-05-06 17:54 47.98056 14.89930 29745 ft 322 kts 248°
2026-05-06 17:54 47.96679 14.83565 29729 ft 322 kts 248°
2026-05-06 17:55 47.95301 14.77218 29739 ft 322 kts 248°
2026-05-06 17:55 47.93915 14.70871 29724 ft 322 kts 248°
2026-05-06 17:56 47.92521 14.64529 29721 ft 322 kts 248°
2026-05-06 17:56 47.91122 14.58185 29729 ft 322 kts 248°
2026-05-06 17:57 47.89731 14.51846 29744 ft 322 kts 248°
2026-05-06 17:57 47.88343 14.45530 29752 ft 319 kts 248°
2026-05-06 17:58 47.86952 14.39260 29752 ft 319 kts 248°
2026-05-06 17:58 47.85568 14.33044 29736 ft 317 kts 248°
2026-05-06 17:59 47.84184 14.26812 29752 ft 317 kts 248°
2026-05-06 17:59 47.82796 14.20592 29750 ft 317 kts 247°
2026-05-06 18:00 47.81398 14.14373 29739 ft 317 kts 247°
2026-05-06 18:00 47.79998 14.08152 29735 ft 317 kts 247°
2026-05-06 18:01 47.78602 14.01945 29762 ft 316 kts 247°
2026-05-06 18:01 47.77208 13.95766 29765 ft 314 kts 247°
2026-05-06 18:02 47.75816 13.89631 29714 ft 311 kts 247°
2026-05-06 18:02 47.75124 13.86593 29171 ft 310 kts 247°
2026-05-06 18:02 47.74427 13.83551 28522 ft 312 kts 247°
2026-05-06 18:03 47.73723 13.80478 27743 ft 317 kts 248°
2026-05-06 18:03 47.73011 13.77364 27054 ft 320 kts 248°
2026-05-06 18:03 47.72292 13.74212 26350 ft 323 kts 248°
2026-05-06 18:03 47.71571 13.71048 25756 ft 323 kts 248°
2026-05-06 18:04 47.70849 13.67894 25221 ft 322 kts 248°
2026-05-06 18:04 47.70126 13.64759 24697 ft 320 kts 247°
2026-05-06 18:04 47.69405 13.61642 24149 ft 319 kts 248°
2026-05-06 18:04 47.68689 13.58544 23592 ft 316 kts 248°
2026-05-06 18:05 47.67976 13.55450 23007 ft 317 kts 248°
2026-05-06 18:05 47.67267 13.52372 22497 ft 313 kts 248°
2026-05-06 18:05 47.66565 13.49325 21978 ft 311 kts 248°
2026-05-06 18:05 47.65867 13.46297 21478 ft 309 kts 248°
2026-05-06 18:06 47.65176 13.43302 20941 ft 306 kts 248°
2026-05-06 18:06 47.64485 13.40325 20357 ft 304 kts 248°
2026-05-06 18:06 47.63794 13.37361 19819 ft 304 kts 248°
2026-05-06 18:06 47.63102 13.34405 19368 ft 302 kts 248°
2026-05-06 18:07 47.62426 13.31512 18933 ft 300 kts 248°
2026-05-06 18:07 47.61743 13.28590 18517 ft 299 kts 248°
2026-05-06 18:07 47.61062 13.25685 18078 ft 298 kts 249°
2026-05-06 18:07 47.60383 13.22785 17559 ft 298 kts 248°
2026-05-06 18:08 47.59710 13.19908 17137 ft 294 kts 248°
2026-05-06 18:08 47.59044 13.17057 16796 ft 291 kts 248°
2026-05-06 18:08 47.58375 13.14221 16754 ft 292 kts 248°
2026-05-06 18:08 47.57702 13.11373 16798 ft 293 kts 248°
2026-05-06 18:09 47.57030 13.08532 16797 ft 293 kts 248°
2026-05-06 18:09 47.56357 13.05683 16818 ft 293 kts 249°
2026-05-06 18:09 47.55682 13.02831 16805 ft 293 kts 248°
2026-05-06 18:09 47.55007 12.99986 16794 ft 293 kts 248°
2026-05-06 18:10 47.54330 12.97136 16792 ft 294 kts 248°
2026-05-06 18:10 47.53652 12.94279 16795 ft 295 kts 248°
2026-05-06 18:10 47.52971 12.91420 16792 ft 293 kts 248°
2026-05-06 18:10 47.52296 12.88578 16786 ft 292 kts 249°
2026-05-06 18:11 47.51622 12.85734 16786 ft 293 kts 248°
2026-05-06 18:11 47.50944 12.82882 16779 ft 294 kts 248°
2026-05-06 18:11 47.50262 12.80030 16774 ft 295 kts 248°
2026-05-06 18:11 47.49583 12.77198 16772 ft 286 kts 249°
2026-05-06 18:12 47.49044 12.74476 16774 ft 267 kts 252°
2026-05-06 18:12 47.48588 12.71857 16755 ft 260 kts 252°
2026-05-06 18:12 47.48155 12.69286 16424 ft 257 kts 252°
2026-05-06 18:12 47.47725 12.66735 16189 ft 254 kts 252°
2026-05-06 18:13 47.47300 12.64211 15917 ft 252 kts 252°
2026-05-06 18:13 47.46874 12.61702 15637 ft 251 kts 252°
2026-05-06 18:13 47.46447 12.59203 15357 ft 250 kts 252°
2026-05-06 18:13 47.46020 12.56715 15052 ft 250 kts 252°
2026-05-06 18:14 47.45590 12.54219 14715 ft 250 kts 252°
2026-05-06 18:14 47.45157 12.51727 14463 ft 249 kts 252°
2026-05-06 18:14 47.44731 12.49265 14189 ft 247 kts 252°
2026-05-06 18:14 47.44307 12.46818 13904 ft 244 kts 252°
2026-05-06 18:15 47.43886 12.44375 13634 ft 245 kts 252°
2026-05-06 18:15 47.43467 12.41943 13402 ft 244 kts 252°
2026-05-06 18:15 47.43049 12.39527 13112 ft 242 kts 252°
2026-05-06 18:15 47.42632 12.37121 12727 ft 242 kts 252°
2026-05-06 18:16 47.42216 12.34725 12407 ft 240 kts 252°
2026-05-06 18:16 47.41806 12.32371 12278 ft 232 kts 252°
2026-05-06 18:16 47.41414 12.30114 12147 ft 221 kts 251°
2026-05-06 18:16 47.41044 12.27985 11882 ft 215 kts 252°
2026-05-06 18:17 47.40674 12.25873 11354 ft 213 kts 252°
2026-05-06 18:17 47.40301 12.23761 10866 ft 215 kts 252°
2026-05-06 18:17 47.39925 12.21636 10647 ft 213 kts 252°
2026-05-06 18:17 47.39556 12.19532 10393 ft 210 kts 251°
2026-05-06 18:18 47.39192 12.17454 10058 ft 208 kts 252°
2026-05-06 18:18 47.38828 12.15393 9688 ft 209 kts 252°
2026-05-06 18:18 47.38461 12.13320 9511 ft 208 kts 251°
2026-05-06 18:18 47.38093 12.11234 9494 ft 211 kts 250°
2026-05-06 18:19 47.37722 12.09146 9482 ft 209 kts 251°
2026-05-06 18:19 47.37352 12.07064 9489 ft 212 kts 251°
2026-05-06 18:19 47.36973 12.04938 9492 ft 216 kts 251°
2026-05-06 18:19 47.36591 12.02790 9492 ft 216 kts 252°
2026-05-06 18:20 47.36211 12.00650 9503 ft 217 kts 251°
2026-05-06 18:20 47.35826 11.98487 9489 ft 218 kts 251°
2026-05-06 18:20 47.35444 11.96341 9495 ft 215 kts 251°
2026-05-06 18:20 47.35062 11.94207 9493 ft 215 kts 251°
2026-05-06 18:21 47.34679 11.92067 9509 ft 217 kts 251°
2026-05-06 18:21 47.34293 11.89915 9497 ft 217 kts 251°
2026-05-06 18:21 47.33909 11.87767 9501 ft 217 kts 251°
2026-05-06 18:21 47.33525 11.85621 9497 ft 214 kts 251°
2026-05-06 18:22 47.33131 11.83594 9496 ft 199 kts 249°
2026-05-06 18:22 47.32629 11.81743 9509 ft 194 kts 242°
2026-05-06 18:22 47.32196 11.79856 9507 ft 195 kts 251°
2026-05-06 18:22 47.31882 11.77895 9163 ft 197 kts 255°
2026-05-06 18:23 47.31605 11.75908 8785 ft 197 kts 254°
2026-05-06 18:23 47.31334 11.73922 8394 ft 197 kts 255°
2026-05-06 18:23 47.31071 11.71984 8030 ft 194 kts 255°
2026-05-06 18:23 47.30807 11.70043 7691 ft 192 kts 254°
2026-05-06 18:24 47.30546 11.68123 7367 ft 191 kts 253°
2026-05-06 18:24 47.30285 11.66207 7049 ft 192 kts 256°
2026-05-06 18:24 47.30021 11.64270 6732 ft 193 kts 255°
2026-05-06 18:24 47.29754 11.62319 6416 ft 195 kts 257°
2026-05-06 18:25 47.29487 11.60366 6109 ft 194 kts 256°
2026-05-06 18:25 47.29221 11.58423 5803 ft 194 kts 257°
2026-05-06 18:25 47.28954 11.56475 5494 ft 194 kts 257°
2026-05-06 18:25 47.28687 11.54529 5183 ft 194 kts 256°
2026-05-06 18:26 47.28419 11.52580 4870 ft 195 kts 257°
2026-05-06 18:26 47.28149 11.50617 4570 ft 195 kts 256°
2026-05-06 18:26 47.27880 11.48661 4258 ft 196 kts 256°
2026-05-06 18:26 47.27611 11.46715 3913 ft 191 kts 257°
2026-05-06 18:27 47.27354 11.44853 3600 ft 180 kts 258°
2026-05-06 18:27 47.27105 11.43082 3258 ft 173 kts 257°
2026-05-06 18:27 47.26861 11.41401 3010 ft 164 kts 257°
2026-05-06 18:27 47.26620 11.39858 2744 ft 148 kts 258°
2026-05-06 18:28 47.26467 11.38394 2414 ft 144 kts 255°
2026-05-06 18:28 47.26303 11.36947 2129 ft 145 kts 254°
2026-05-06 18:28 47.26140 11.35495 1923 ft 143 kts 255°
2026-05-06 18:28 47.26012 11.34338 1908 ft 77 kts 261°
2026-05-06 18:29 47.25955 11.33810 1909 ft 24 kts 261°
2026-05-06 18:29 47.25904 11.33723 1900 ft 9 kts 155°
2026-05-06 18:29 47.25854 11.33790 1904 ft 11 kts 124°
2026-05-06 18:29 47.25807 11.33887 1900 ft 13 kts 125°
2026-05-06 18:30 47.25771 11.34013 1907 ft 17 kts 97°
2026-05-06 18:30 47.25790 11.34240 1907 ft 24 kts 81°
2026-05-06 18:30 47.25817 11.34490 1907 ft 26 kts 81°
2026-05-06 18:30 47.25846 11.34760 1902 ft 23 kts 81°
2026-05-06 18:31 47.25864 11.34926 1907 ft 10 kts 81°
2026-05-06 18:31 47.25848 11.34983 1907 ft 7 kts 163°
2026-05-06 18:31 47.25814 11.34993 1907 ft 0 kts 170°